Regional Weather Roundup
Issued by NWS

Home | Current Version | Previous Version | Graphics & Text | Print | Product List | Glossary On
Versions: 1 2 3 4 5 6 7 8 9 10 11 12 13 14 15 16 17 18 19 20 21 22 23 24 25 26 27 28 29 30 31 32 33 34 35 36 37 38 39 40 41 42 43 44 45 46 47 48 49 50
000
ASUS45 KTFX 220310
RWRMT
MONTANA REGIONAL WEATHER ROUNDUP
NATIONAL WEATHER SERVICE GREAT FALLS MT
800 PM MST SUN JAN 21 2018

NOTE: "FAIR" INDICATES FEW OR NO CLOUDS BELOW 12000 FEET WITH NO
SIGNIFICANT WEATHER AND/OR OBSTRUCTIONS TO VISIBILITY.

MTZ001>007-043-220400-
WEST OF THE DIVIDE

CITY           SKY/WX    TMP DP  RH WIND       PRES   REMARKS
KALISPELL      CLOUDY    30  23  75 SW5       29.97F
MISSOULA       FAIR      32  21  64 E13       30.02F WCI  22
BUTTE          FAIR       3  -1  83 VRB3      30.05S
MULLAN PASS    LGT SNOW  23  22  96 VRB5      29.89R FOG
ANACONDA         N/A     25  12  58 S14G21    30.02F WCI  13
DEER LODGE       N/A     14  10  85 W5        30.03F
EUREKA           N/A     36  21  55 MISG      29.94S
HAMILTON         N/A     34  18  51 S13       30.03F WCI  25
PLAINS           N/A     31  24  75 N2        29.99F
RONAN            N/A     32  21  64 S13       29.99F WCI  22
$$

MTZ008-052>055-220400-
SOUTHWEST MONTANA

CITY           SKY/WX    TMP DP  RH WIND       PRES   REMARKS
BOZEMAN        FAIR       2  -1  88 SE8       30.09F WCI -12
DILLON         FAIR      18   8  65 S9        30.08  WCI   7
ENNIS          CLEAR     19  12  73 S15       30.14S WCI   5
W YELLOWSTONE  MOCLDY    10   9  92 S3        30.13S
THREE FORKS      N/A     20  15  81 CALM      30.07S
TWIN BRIDGES     N/A     22  11  62 CALM      30.07F
$$

MTZ009-010-012-014-046-048-049-054-220400-
EAST SLOPES AND CENTRAL MONTANA

CITY           SKY/WX    TMP DP  RH WIND       PRES   REMARKS
CUT BANK       FAIR      34  11  38 SW10      29.84F WCI  26
GREAT FALLS    FAIR      31  14  49 S21       29.93F WCI  18
MALMSTROM AFB  MOCLDY    31  17  57 SW22      29.94F WCI  18
HELENA         FAIR      21  15  78 S5        30.04F
AUGUSTA        MOCLDY    29  15  55 S20       29.87F WCI  17
BOWMANS CRNR   MOCLDY    26  16  66 S29       29.88S WCI  10
CHOTEAU          N/A     32  12  43 S12       29.89F WCI  23
FAIRFIELD      FAIR      29  16  56 S22G29    29.88F WCI  16
POWER          FAIR      26  16  65 S22       29.90F WCI  12
RAYNESFORD     MOCLDY    31  12  46 CALM      29.96S
ULM            MOCLDY    31  17  56 S15       29.95F WCI  20
WHITE SULPHUR    N/A     19   9  63 S23       30.00F WCI   2
$$

MTZ011-013-016-021-045-047-050-051-220400-
NORTH CENTRAL MONTANA

CITY           SKY/WX    TMP DP  RH WIND       PRES   REMARKS
HAVRE          FAIR      19  14  81 W6        29.93F WCI  11
LEWISTOWN      FAIR      23  12  62 S13       29.96S WCI  11
N BAR RANCH    FAIR      19  10  68 NW6       29.98S WCI  11
CHINOOK          N/A     16  12  86 E7        29.97R WCI   6
DENTON         FAIR      25  18  76 MISG      29.93S
GEYSER         FAIR      28  14  54 SW14      29.94S WCI  17
GRASS RANGE    FAIR      24  18  75 SW9       29.95S WCI  15
STANFORD       FAIR      22  14  71 CALM      29.93F
WINIFRED       FAIR      26  19  73 SE13      29.95F WCI  15
$$

MTZ017>020-022>027-061-062-220400-
NORTHEAST MONTANA

CITY           SKY/WX    TMP DP  RH WIND       PRES   REMARKS
GLASGOW        FAIR      15  11  83 CALM      30.00S
GLENDIVE       FAIR      14  12  92 SW5       30.04S
JORDAN           N/A     21  14  74 CALM      29.99F
MALTA          CLEAR      5   3  92 CALM      30.00S
SIDNEY         FAIR      19  16  88 S3        30.03S
WOLF POINT     FAIR      13  10  88 CALM      30.03S
PLENTYWOOD       N/A     21  18  86 CALM      29.99R
POPLAR           N/A     18  14  86 W3        30.03S
SCOBEY           N/A     12   3  67 CALM      29.96S
$$

MTZ028>42-056>058-220400-
SOUTHCENTRAL AND SOUTHEAST MONTANA

CITY           SKY/WX    TMP DP  RH WIND       PRES   REMARKS
BAKER          FAIR      17  15  92 CALM      30.03S
BILLINGS       FAIR      30  20  66 W14       30.01R WCI  19
LIVINGSTON     FAIR      25  15  66 W17       30.04S WCI  12
MILES CITY     FAIR      19  16  88 S6        30.03F WCI  11
BIG TIMBER     CLEAR     28  12  50 W30G37    30.00S WCI  13
EKALAKA          N/A     22  12  65 CALM      29.99S
FORSYTH          N/A     18  16  93 CALM      30.03S
HARLOWTON      FAIR      26  14  60 W29       29.96S WCI  10
LAUREL           N/A     28  19  69 W14       30.03R WCI  17
$$

REGIONAL REPORTS...DAKOTAS

CITY           SKY/WX    TMP DP  RH WIND       PRES   REMARKS
WILLISTON      FAIR      11   8  88 W5        30.01S
MINOT          FAIR      19  16  88 S5        30.01S
DICKINSON      FAIR      19  16  88 W8        30.00R WCI   9
BEACH          FAIR      21  18  86 W12       30.05S WCI   9
CROSBY         FAIR      14  12  92 S7        29.99S WCI   4
TIOGA          FAIR      16  16 100 CALM      30.00S
BISMARCK       FAIR      16  13  88 E3        30.06S
GRAND FORKS    CLOUDY    24  21  88 N5        30.12S
FARGO          CLOUDY    26  22  84 NE16G22   30.09F WCI  14
BUFFALO SD       N/A     24  18  77 SW6       29.96S WCI  17
RAPID CITY     FAIR      31  22  69 N16       30.00F WCI  20
$$

REGIONAL REPORTS...WYOMING/IDAHO/WASHINGTON

CITY           SKY/WX    TMP DP  RH WIND       PRES   REMARKS
GILLETTE       FAIR      20  16  84 SW7       30.02S WCI  11
SHERIDAN       FAIR      19  13  77 S3        30.01S
BUFFALO WY     FAIR      24  13  62 CALM      30.00F
CODY           FAIR      19  15  84 VRB3      30.01S
YELLOWSTONE LA   N/A     -6 -10  83 CALM      30.14R
IDAHO FALLS    FAIR      27  20  75 S7        30.21S WCI  19
SALMON         FAIR      19  15  84 S3        30.17F
BOISE          CLOUDY    39  25  57 SE7       30.18S
SPOKANE        CLOUDY    34  33  96 S14       29.94F WCI  25
$$

REGIONAL REPORTS...ALBERTA

CITY           SKY/WX    TMP DP  RH WIND       PRES   REMARKS
CALGARY        MOCLDY    28  19  69 CALM      29.64F
CARDSTON         N/A     36  14  41 W6          N/A  WCI  31
EDMONTON       CLEAR     18  14  86 E13       29.67F WCI   4
FORT MCMURRAY  CLOUDY     9   5  85 E6        29.94F WCI  -1
HIGH LEVEL     LGT SNOW  10   7  85 SE10      29.80F DRFTSNOWWCI  -3
LETHBRIDGE     MOCLDY    28  19  69 S10       29.79F WCI  19
LLOYDMINSTER   CLOUDY    21  21 100 SE23G30   29.81F FOG     WCI   5
MEDICINE HAT   PTCLDY    32  21  64 S15G23    29.82S WCI  22
MILK RIVER       N/A     30  19  64 SW18        N/A  WCI  18
ONEFOUR          N/A     14  12  92 E13         N/A  WCI   0
PEACE RIVER    CLOUDY    21  18  86 NE12      29.59F WCI   9
PINCHER CREEK  CLOUDY    32  19  59 W23G33    29.76F WCI  19
WATERTON GATE    N/A     34  14  44 SW25G47     N/A  WCI  21
$$

REGIONAL REPORTS...SASKATCHEWAN

CITY           SKY/WX    TMP DP  RH WIND       PRES   REMARKS
CORONACH         N/A     10   7  85 CALM        N/A
CYPRESS HILLS    N/A     21  12  68 SW6         N/A  WCI  14
ESTEVAN        CLEAR     12  10  92 S5        29.98F
MOOSE JAW        N/A     14  10  85 S3          N/A
PRINCE ALBERT  CLOUDY    14  10  85 E9        30.05S WCI   2
REGINA         CLEAR     14  12  92 SE7       29.98R WCI   4
ROCKGLEN         N/A     14  10  85 W7          N/A  WCI   4
SASKATOON      CLOUDY    23  23 100 E12       29.99S WCI  12
SWIFT CURRENT  CLEAR     23  16  74 S13       29.87F WCI  11
VAL MARIE        N/A      3   0  85 CALM        N/A
$$



USA.gov is the U.S. government's official web portal to all federal, state and local government web resources and services.